Back to catalog

DELTA 1 DEB

AliveSSO
NORAD 42573·DEBRIS·🇺🇸 United States

Launched Nov 6, 1973 from Vandenberg Space Force Base

Loading…

Next Passes (next 24 hours)

TLE

FreshSource: Space-Track

Epoch: Sep 14, 2026, 05:42 UTC

1 42573U 73086HM  26257.23782370  .00000044  00000-0  61230-3 0  9992
2 42573 101.9193 358.9164 0040798 186.6289 201.8915 12.46303264582496

Track DELTA 1 DEB in real time with AllMySat

Download on the App Store